TimeCST,TemperatureF,Dew PointF,Humidity,Sea Level PressureIn,VisibilityMPH,Wind Direction,Wind SpeedMPH,Gust SpeedMPH,PrecipitationIn,Events,Conditions,WindDirDegrees,DateUTC
12:53 AM,50.0,36.0,59,30.16,10.0,ESE,5.8,-,N/A,,Clear,110,2012-11-08 06:53:00
1:53 AM,48.0,37.9,68,30.17,10.0,SE,6.9,-,N/A,,Clear,130,2012-11-08 07:53:00
2:53 AM,46.9,37.9,71,30.17,10.0,SE,5.8,-,N/A,,Clear,130,2012-11-08 08:53:00
3:53 AM,41.0,37.9,89,30.17,10.0,Calm,Calm,-,N/A,,Clear,0,2012-11-08 09:53:00
5:53 AM,39.9,37.0,89,30.19,10.0,Calm,Calm,-,N/A,,Clear,0,2012-11-08 11:53:00
6:53 AM,37.9,37.0,97,30.21,10.0,Calm,Calm,-,N/A,,Clear,0,2012-11-08 12:53:00
7:53 AM,46.0,37.9,73,30.23,10.0,SE,5.8,-,N/A,,Clear,130,2012-11-08 13:53:00
8:53 AM,52.0,37.0,57,30.24,10.0,SE,11.5,16.1,N/A,,Clear,140,2012-11-08 14:53:00
9:53 AM,55.9,37.0,49,30.24,10.0,SSE,9.2,-,N/A,,Clear,150,2012-11-08 15:53:00
10:53 AM,60.1,37.9,44,30.22,10.0,South,8.1,-,N/A,,Clear,170,2012-11-08 16:53:00
11:53 AM,64.0,39.0,40,30.18,10.0,SSE,9.2,-,N/A,,Clear,160,2012-11-08 17:53:00
12:53 PM,66.0,41.0,40,30.14,10.0,SSE,8.1,-,N/A,,Clear,150,2012-11-08 18:53:00
1:53 PM,68.0,41.0,37,30.12,10.0,SE,6.9,-,N/A,,Clear,140,2012-11-08 19:53:00
2:53 PM,69.1,42.1,38,30.10,10.0,SE,9.2,-,N/A,,Clear,130,2012-11-08 20:53:00
3:53 PM,69.1,43.0,39,30.09,10.0,SSE,9.2,-,N/A,,Clear,150,2012-11-08 21:53:00
4:53 PM,66.0,44.1,45,30.08,10.0,SE,6.9,-,N/A,,Clear,140,2012-11-08 22:53:00
5:53 PM,61.0,44.1,54,30.09,10.0,SE,8.1,-,N/A,,Clear,140,2012-11-08 23:53:00
6:53 PM,60.1,44.1,55,30.10,10.0,SE,8.1,-,N/A,,Clear,140,2012-11-09 00:53:00
7:53 PM,59.0,45.0,60,30.10,10.0,SSE,6.9,-,N/A,,Clear,150,2012-11-09 01:53:00
8:53 PM,57.9,45.0,62,30.10,10.0,SSE,9.2,-,N/A,,Clear,150,2012-11-09 02:53:00
9:53 PM,57.9,44.1,60,30.10,10.0,SSE,11.5,-,N/A,,Clear,150,2012-11-09 03:53:00
10:53 PM,57.9,44.1,60,30.09,10.0,SSE,10.4,-,N/A,,Clear,160,2012-11-09 04:53:00
11:53 PM,55.9,45.0,67,30.10,10.0,South,9.2,-,N/A,,Clear,170,2012-11-09 05:53:00